Wiscasset, ME

4:43 AM EST on December 15, 2017 (GMT -0500)
Wiscasset

Weather History for KIWI - February, 2012

Change the Weather History Date:

Monday, February 20, 2012

  Actual Average Record
Temperature  
Mean Temperature 27 °F -  
Max Temperature 37 °F 32 °F 48 °F (2016)
Min Temperature 17 °F 14 °F -4 °F (2015)
Degree Days  
Heating Degree Days 38    
Moisture  
Dew Point 9 °F    
Average Humidity 48    
Maximum Humidity 81    
Minimum Humidity 23    
Precipitation  
Precipitation 0.00 in - - ()
Sea Level Pressure  
Sea Level Pressure 30.10 in    
Wind  
Wind Speed 4 mph (NW)    
Max Wind Speed 12 mph    
Max Gust Speed 22 mph    
Visibility 10 miles    
Events      
Averages and records for this station are not official NWS values.
T = Trace of Precipitation, MM = Missing Value Source: NWS Daily Summary

Daily Weather History Graph

Daily Weather History Graph

Search for Another Location

Airport or City:

Trip Planner

Search our weather history database for the weather conditions in past years. The results will help you decide how hot, cold, wet, or windy it might be!

Date:

Astronomy

Feb. 20, 2012 Rise Set
Actual Time 6:31 AM EST 5:14 PM EST
Civil Twilight 6:01 AM EST 5:44 PM EST
Nautical Twilight 5:28 AM EST 6:17 PM EST
Astronomical Twilight 4:54 AM EST 6:51 PM EST
Moon 5:27 AM EST (2/20) 4:15 PM EST (2/20)
Length of Visible Light 11h 42m
Length of Day
10h 43m
Waning Crescent, 2% of the Moon is Illuminated
Feb 20
Waning Crescent
Feb 21
New
Feb 29
First Quarter
Mar 8
Full
Mar 14
Last Quarter

Hourly Weather History & Observations

Time (EST) Temp. Windchill Dew Point Humidity Pressure Visibility Wind Dir Wind Speed Gust Speed Precip Events Conditions
12:53 AM 26.1 °F 20.5 °F 12.9 °F 58% 30.02 in 10.0 mi NW 4.6 mph - N/A   Clear
1:53 AM 25.0 °F - 12.0 °F 58% 30.02 in 10.0 mi Calm Calm - N/A   Clear
2:53 AM 21.9 °F - 12.0 °F 66% 30.02 in 10.0 mi Calm Calm - N/A   Clear
3:53 AM 19.9 °F - 12.0 °F 71% 30.02 in 10.0 mi Calm Calm - N/A   Clear
4:53 AM 18.0 °F - 12.0 °F 78% 30.03 in 10.0 mi Calm Calm - N/A   Clear
5:53 AM 18.0 °F - 12.0 °F 78% 30.04 in 10.0 mi Calm Calm - N/A   Clear
6:53 AM 17.1 °F - 12.0 °F 81% 30.05 in 10.0 mi Calm Calm - N/A   Clear
7:53 AM 25.0 °F 20.7 °F 14.0 °F 63% 30.06 in 10.0 mi Variable 3.5 mph - N/A   Clear
8:53 AM 28.0 °F 20.8 °F 10.0 °F 47% 30.07 in 10.0 mi Variable 6.9 mph - N/A   Clear
9:53 AM 30.0 °F 22.4 °F 7.0 °F 38% 30.09 in 10.0 mi WNW 8.1 mph 17.3 mph N/A   Clear
10:53 AM 32.0 °F 26.4 °F 6.1 °F 34% 30.08 in 10.0 mi Variable 5.8 mph - N/A   Clear
11:53 AM 34.0 °F 28.0 °F 3.0 °F 27% 30.07 in 10.0 mi Variable 6.9 mph 17.3 mph N/A   Clear
12:53 PM 36.0 °F 28.0 °F 1.9 °F 24% 30.07 in 10.0 mi NNW 11.5 mph 21.9 mph N/A   Clear
1:53 PM 37.0 °F 30.4 °F 1.9 °F 23% 30.06 in 10.0 mi WNW 9.2 mph 19.6 mph N/A   Clear
2:53 PM 37.9 °F 32.7 °F 5.0 °F 25% 30.07 in 10.0 mi Variable 6.9 mph 17.3 mph N/A   Clear
3:53 PM 37.0 °F 30.4 °F 6.1 °F 28% 30.10 in 10.0 mi NW 9.2 mph 19.6 mph N/A   Clear
4:53 PM 35.1 °F 31.0 °F 8.1 °F 33% 30.12 in 10.0 mi Variable 4.6 mph - N/A   Clear
5:53 PM 33.1 °F 30.0 °F 8.1 °F 35% 30.15 in 10.0 mi Variable 3.5 mph - N/A   Clear
6:53 PM 30.9 °F 27.5 °F 9.0 °F 40% 30.18 in 10.0 mi Variable 3.5 mph - N/A   Clear
7:53 PM 30.0 °F 22.4 °F 9.0 °F 41% 30.20 in 10.0 mi NW 8.1 mph - N/A   Clear
8:53 PM 28.0 °F 22.8 °F 10.0 °F 47% 30.22 in 10.0 mi WNW 4.6 mph - N/A   Clear
9:53 PM 27.0 °F 23.0 °F 12.0 °F 53% 30.24 in 10.0 mi Variable 3.5 mph - N/A   Clear
10:53 PM 26.1 °F - 12.0 °F 55% 30.26 in 10.0 mi Calm Calm - N/A   Clear
11:53 PM 25.0 °F 19.3 °F 12.0 °F 58% 30.28 in 10.0 mi WNW 4.6 mph - N/A   Clear